TimeCST,TemperatureF,Dew PointF,Humidity,Sea Level PressureIn,VisibilityMPH,Wind Direction,Wind SpeedMPH,Gust SpeedMPH,PrecipitationIn,Events,Conditions,WindDirDegrees,DateUTC
12:06 AM,5.0,-0.4,78,29.82,6.0,WNW,19.6,-,N/A,,Haze,290,2013-01-31 06:06:00
12:18 AM,5.0,-2.2,72,29.82,10.0,WNW,21.9,-,N/A,,Scattered Clouds,300,2013-01-31 06:18:00
12:33 AM,5.0,-2.2,72,29.83,10.0,WNW,18.4,-,N/A,,Mostly Cloudy,300,2013-01-31 06:33:00
12:52 AM,3.9,-2.0,76,29.91,10.0,NW,19.6,-,N/A,,Mostly Cloudy,310,2013-01-31 06:52:00
1:07 AM,3.2,-2.2,78,29.83,10.0,NW,16.1,-,N/A,,Scattered Clouds,310,2013-01-31 07:07:00
1:52 AM,1.9,-5.1,72,29.91,10.0,WNW,13.8,23.0,N/A,,Clear,300,2013-01-31 07:52:00
2:52 AM,-0.0,-7.1,72,29.94,10.0,NW,19.6,-,N/A,,Clear,310,2013-01-31 08:52:00
3:40 AM,-0.4,-7.6,72,29.86,10.0,NW,21.9,29.9,N/A,,Mostly Cloudy,310,2013-01-31 09:40:00
3:52 AM,-0.0,-7.1,72,29.96,10.0,WNW,20.7,-,N/A,,Overcast,300,2013-01-31 09:52:00
4:52 AM,-0.9,-8.0,72,29.97,10.0,WNW,20.7,28.8,N/A,,Overcast,290,2013-01-31 10:52:00
5:52 AM,-0.9,-8.0,72,30.01,10.0,NW,21.9,-,N/A,,Overcast,320,2013-01-31 11:52:00
6:20 AM,-2.2,-9.4,71,29.92,10.0,NW,24.2,-,N/A,,Scattered Clouds,320,2013-01-31 12:20:00
6:52 AM,-2.9,-9.9,72,30.04,10.0,WNW,18.4,-,N/A,,Clear,300,2013-01-31 12:52:00
7:52 AM,-4.0,-11.0,72,30.07,10.0,NW,20.7,27.6,N/A,,Clear,310,2013-01-31 13:52:00
8:52 AM,-2.9,-11.0,68,30.11,10.0,NW,24.2,29.9,N/A,,Clear,310,2013-01-31 14:52:00
9:52 AM,-0.9,-11.0,62,30.14,10.0,NNW,20.7,32.2,N/A,,Clear,330,2013-01-31 15:52:00
10:52 AM,-0.0,-9.9,63,30.18,10.0,NW,28.8,38.0,N/A,,Clear,320,2013-01-31 16:52:00
12:33 PM,1.4,-9.4,61,30.11,8.0,NW,24.2,34.5,N/A,,Mostly Cloudy,320,2013-01-31 18:33:00
12:52 PM,1.0,-9.0,63,30.22,6.0,NW,26.5,35.7,N/A,,Haze,310,2013-01-31 18:52:00
1:44 PM,1.4,-9.4,61,30.13,10.0,NW,25.3,33.4,N/A,,Mostly Cloudy,310,2013-01-31 19:44:00
1:52 PM,1.9,-9.0,60,30.24,10.0,NW,26.5,33.4,N/A,,Mostly Cloudy,310,2013-01-31 19:52:00
2:52 PM,3.0,-8.0,60,30.25,10.0,NW,27.6,33.4,N/A,,Clear,310,2013-01-31 20:52:00
3:52 PM,3.0,-8.0,60,30.28,10.0,NW,27.6,32.2,N/A,,Clear,320,2013-01-31 21:52:00
4:52 PM,1.0,-9.0,63,30.30,10.0,NW,23.0,-,N/A,,Clear,320,2013-01-31 22:52:00
5:52 PM,-0.9,-9.9,66,30.32,10.0,WNW,19.6,28.8,N/A,,Clear,300,2013-01-31 23:52:00
6:52 PM,-2.0,-11.0,66,30.35,10.0,WNW,20.7,27.6,N/A,,Clear,300,2013-02-01 00:52:00
7:52 PM,-4.0,-13.0,65,30.37,10.0,NW,19.6,25.3,N/A,,Clear,310,2013-02-01 01:52:00
8:52 PM,-5.1,-14.1,65,30.39,10.0,WNW,18.4,-,N/A,,Clear,300,2013-02-01 02:52:00
9:52 PM,-6.0,-15.0,65,30.40,10.0,WNW,18.4,-,N/A,,Clear,300,2013-02-01 03:52:00
10:52 PM,-7.1,-15.0,68,30.41,10.0,NW,17.3,-,N/A,,Clear,310,2013-02-01 04:52:00
11:52 PM,-8.0,-16.1,68,30.41,10.0,NW,15.0,-,N/A,,Clear,310,2013-02-01 05:52:00